Sigfox identifier Datetime Temperature Humidity SNR
0039E070 2019-02-20 14:01:25 21 24 21.3
0039E070 2019-02-20 13:28:01 21 25 21.4
0039E070 2019-02-20 12:54:36 20.9 25 19.9
0039E070 2019-02-20 12:21:16 20.9 26 20
0039E070 2019-02-20 11:14:22 20.9 26 17.8
0039E070 2019-02-20 10:40:57 20.9 26 17.5
0039E070 2019-02-20 10:07:32 20.9 26 17.8
0039E070 2019-02-20 09:34:07 20.8 26 17.9
0039E070 2019-02-20 09:00:45 20.8 26 17.9
0039E070 2019-02-20 08:27:19 20.9 26 17.9
0039E070 2019-02-20 07:53:55 20.8 26 17.6
0039E070 2019-02-20 07:20:31 20.9 27 17.7
0039E070 2019-02-20 06:47:06 20.9 26 17.3
0039E070 2019-02-20 06:13:42 20.9 26 16.9
0039E070 2019-02-20 05:40:17 20.9 26 16.3
0039E070 2019-02-20 05:06:54 20.9 26 19
0039E070 2019-02-20 04:33:30 20.9 26 18.9
0039E070 2019-02-20 04:00:06 21 26 19
0039E070 2019-02-20 03:26:42 20.9 26 19
0039E070 2019-02-20 02:53:19 21 26 19
0039E070 2019-02-20 02:19:54 21 26 19
0039E070 2019-02-20 01:46:30 21 26 18.8
0039E070 2019-02-20 01:13:05 21 26 20.4
0039E070 2019-02-20 00:39:45 21 26 20.4
0039E070 2019-02-20 00:06:18 21 26 20.4
0039E070 2019-02-19 23:32:53 21 26 20.3
0039E070 2019-02-19 22:59:29 21 26 20.3
0039E070 2019-02-19 22:26:06 21 26 20.3
0039E070 2019-02-19 21:52:43 21.1 26 20.2
0039E070 2019-02-19 21:19:16 21.1 26 21.6
0039E070 2019-02-19 20:45:54 21.1 26 21.5
0039E070 2019-02-19 20:12:30 21.1 26 21.5
0039E070 2019-02-19 19:39:09 21.1 26 21.6
0039E070 2019-02-19 19:05:43 21.1 26 21.5
0039E070 2019-02-19 18:32:17 21.2 26 21.6
0039E070 2019-02-19 17:58:53 21.2 26 21.7
0039E070 2019-02-19 17:25:30 21.2 26 21.7
0039E070 2019-02-19 16:52:05 21.2 26 21.7
0039E070 2019-02-19 16:18:40 21.2 26 21.7
0039E070 2019-02-19 15:45:15 21.4 26 20.4
0039E070 2019-02-19 15:43:59 21.2 26 20.5
0039E070 2019-02-19 15:10:33 21.1 26 20.5
0039E070 2019-02-19 13:30:20 21.1 26 20.5
0039E070 2019-02-19 12:56:54 21.1 26 20.5
0039E070 2019-02-19 12:23:30 21.1 26 20.5
0039E070 2019-02-19 11:50:08 21.1 25 20.5
0039E070 2019-02-19 11:16:42 21 25 18.8
0039E070 2019-02-19 10:43:18 21 25 19
0039E070 2019-02-19 09:36:31 20.9 25 18.9
0039E070 2019-02-19 09:03:09 20.9 24 18.8
0039E070 2019-02-19 08:29:43 20.9 24 18.7
0039E070 2019-02-19 07:56:20 20.9 24 18.7
0039E070 2019-02-19 07:22:54 20.9 24 18.6
0039E070 2019-02-19 06:49:31 20.9 24 18.7
0039E070 2019-02-19 06:16:07 20.9 24 15.4
0039E070 2019-02-19 05:42:43 20.9 24 15.2
0039E070 2019-02-19 05:09:18 20.9 24 15.1
0039E070 2019-02-19 04:35:53 20.9 24 14.8
0039E070 2019-02-19 04:02:28 20.9 23 18.5
0039E070 2019-02-19 03:29:04 20.9 23 18.4
0039E070 2019-02-19 02:55:39 20.9 23 18.3
0039E070 2019-02-19 02:22:16 20.9 23 18.6
0039E070 2019-02-19 01:48:57 20.9 23 19.4
0039E070 2019-02-19 01:15:29 21 23 19.3
0039E070 2019-02-19 00:42:06 20.9 23 19.3
0039E070 2019-02-19 00:08:42 21 23 19.9
0039E070 2019-02-18 23:35:20 20.9 23 20
0039E070 2019-02-18 23:01:55 20.9 22 20.2
0039E070 2019-02-18 22:28:32 20.9 22 20.3
0039E070 2019-02-18 21:55:09 20.9 22 20.4
0039E070 2019-02-18 21:21:50 20.9 22 20.4
0039E070 2019-02-18 20:48:23 21 22 20.5
0039E070 2019-02-18 20:15:00 21 22 20.8
0039E070 2019-02-18 19:41:37 21 22 21.2
0039E070 2019-02-18 19:08:13 21 22 21.5
0039E070 2019-02-18 18:34:50 21 22 21.9
0039E070 2019-02-18 18:01:31 21.1 21 22.1
0039E070 2019-02-18 17:28:04 21.1 21 22.3
0039E070 2019-02-18 16:54:40 21.1 21 22.6
0039E070 2019-02-18 16:21:16 21.1 21 22.8
0039E070 2019-02-18 15:47:53 21.1 21 22.9
0039E070 2019-02-18 15:14:28 21.2 21 22.2
0039E070 2019-02-18 14:41:05 21.2 21 22.2
0039E070 2019-02-18 14:07:42 21.3 20 22.3
0039E070 2019-02-18 13:34:19 21.4 20 22.4
0039E070 2019-02-18 13:00:57 21.4 20 22.2
0039E070 2019-02-18 12:27:34 21.7 19 22.4
0039E070 2019-02-18 12:26:16 21.5 20 22.6
0039E070 2019-02-18 11:52:53 21.5 20 22.8
0039E070 2019-02-18 11:19:29 21.3 20 22.7
0039E070 2019-02-18 10:46:06 21.3 19 22.8
0039E070 2019-02-18 10:12:44 21.2 19 22.9
0039E070 2019-02-18 09:39:21 21.2 19 23
0039E070 2019-02-18 09:05:57 21.1 19 23.1
0039E070 2019-02-18 08:32:33 21.1 19 23.2
0039E070 2019-02-18 07:59:10 21.1 19 23.1
0039E070 2019-02-18 07:25:46 21.1 19 23.2
0039E070 2019-02-18 06:52:22 21.1 19 23.1
0039E070 2019-02-18 06:18:57 21.1 19 23.2
0039E070 2019-02-18 05:45:33 21.1 19 23.2
0039E070 2019-02-18 05:12:09 21.1 19 23.3
0039E070 2019-02-18 04:38:46 21.1 19 23.3
0039E070 2019-02-18 04:05:23 21.1 20 23.3
0039E070 2019-02-18 03:31:59 21.1 20 23.3
0039E070 2019-02-18 02:58:36 21.1 20 23.3
0039E070 2019-02-18 02:25:12 21.1 20 23.3
0039E070 2019-02-18 01:51:49 21.1 20 23.4
0039E070 2019-02-18 01:18:25 21.1 20 23.4
0039E070 2019-02-18 00:45:01 21.1 20 23.5
0039E070 2019-02-18 00:11:38 21.1 20 23.5
0039E070 2019-02-17 23:38:15 21.2 20 23.7
0039E070 2019-02-17 23:04:52 21.1 20 23.6
0039E070 2019-02-17 22:31:28 21.2 20 23.4
0039E070 2019-02-17 21:58:04 21.2 20 23.5
0039E070 2019-02-17 21:24:42 21.2 20 23.6
0039E070 2019-02-17 20:51:18 21.2 21 23.6
0039E070 2019-02-17 20:17:54 21.2 21 23.6
0039E070 2019-02-17 19:44:31 21.2 21 23.7
0039E070 2019-02-17 19:11:07 21.2 21 23.7
0039E070 2019-02-17 18:37:44 21.2 21 23.8
0039E070 2019-02-17 18:04:19 21.2 21 23.9
0039E070 2019-02-17 17:30:56 21.3 21 24.1
0039E070 2019-02-17 16:57:32 21.3 21 24.1
0039E070 2019-02-17 16:24:09 21.3 21 24.1
0039E070 2019-02-17 15:50:46 21.3 21 24.1
0039E070 2019-02-17 15:17:24 21.3 21 23.9
0039E070 2019-02-17 14:44:01 21.3 21 23.9
0039E070 2019-02-17 14:10:38 21.3 22 23.9
0039E070 2019-02-17 13:37:15 21.2 22 23.9
0039E070 2019-02-17 13:03:52 21.2 22 23.9
0039E070 2019-02-17 12:30:29 21.2 22 24.1
0039E070 2019-02-17 11:57:05 21.2 22 24
0039E070 2019-02-17 11:23:42 21.2 22 24.2
0039E070 2019-02-17 10:50:19 21.2 22 24.2
0039E070 2019-02-17 10:16:56 21.2 22 24.2
0039E070 2019-02-17 09:43:32 21.2 22 24.2
0039E070 2019-02-17 09:10:09 21.4 22 24.1
0039E070 2019-02-17 09:08:51 21.2 22 24.2
0039E070 2019-02-17 08:35:28 21.2 23 24.2
0039E070 2019-02-17 08:02:04 21.2 23 24.1
0039E070 2019-02-17 07:28:41 21.2 23 24.2
0039E070 2019-02-17 06:55:18 21.2 23 24.4
0039E070 2019-02-17 06:21:54 21.2 23 24.3
0039E070 2019-02-17 05:48:31 21.2 23 24.4
0039E070 2019-02-17 05:15:08 21.2 23 24.2
0039E070 2019-02-17 04:41:45 21.3 24 24.2
0039E070 2019-02-17 04:08:23 21.3 24 24.1
0039E070 2019-02-17 03:34:59 21.3 24 24.2
0039E070 2019-02-17 03:01:36 21.3 24 24.2
0039E070 2019-02-17 02:28:14 21.3 24 24.4
0039E070 2019-02-17 01:54:51 21.3 24 24.5
0039E070 2019-02-17 01:21:28 21.3 24 24.5
0039E070 2019-02-17 00:48:05 21.3 24 24.6
0039E070 2019-02-17 00:14:43 21.3 24 24.7
0039E070 2019-02-16 23:41:20 21.3 25 24.8
0039E070 2019-02-16 23:07:57 21.3 25 24.6
0039E070 2019-02-16 22:34:34 21.3 25 24.6
0039E070 2019-02-16 22:01:12 21.3 25 24.5
0039E070 2019-02-16 21:27:49 21.3 25 24.6
0039E070 2019-02-16 20:54:27 21.4 25 24.5
0039E070 2019-02-16 20:21:03 21.4 25 24.5
0039E070 2019-02-16 19:47:40 21.4 25 24.6
0039E070 2019-02-16 19:14:17 21.4 25 24.7
0039E070 2019-02-16 18:40:54 21.4 25 24.7
0039E070 2019-02-16 18:07:31 21.4 25 24.7
0039E070 2019-02-16 17:34:08 21.4 25 25.1
0039E070 2019-02-16 17:00:44 21.5 25 25
0039E070 2019-02-16 16:27:21 21.5 25 24.9
0039E070 2019-02-16 15:53:58 21.5 25 25
0039E070 2019-02-16 15:20:35 21.5 25 24.9
0039E070 2019-02-16 14:47:12 21.5 25 24.9
0039E070 2019-02-16 14:13:48 21.4 25 24.8
0039E070 2019-02-16 13:40:25 21.4 25 24.8
0039E070 2019-02-16 13:07:02 21.4 25 24.8
0039E070 2019-02-16 12:33:38 21.4 25 24.8
0039E070 2019-02-16 12:00:16 21.4 25 24.9
0039E070 2019-02-16 11:26:52 21.3 25 24.8
0039E070 2019-02-16 10:53:29 21.3 25 24.9
0039E070 2019-02-16 10:20:05 21.3 25 24.8
0039E070 2019-02-16 09:46:42 21.3 25 24.8
0039E070 2019-02-16 09:13:19 21.3 25 24.8
0039E070 2019-02-16 08:39:57 21.3 25 24.9
0039E070 2019-02-16 08:06:34 21.4 25 24.9
0039E070 2019-02-16 07:33:12 21.4 25 24.9
0039E070 2019-02-16 06:59:49 21.4 25 25
0039E070 2019-02-16 06:26:26 21.5 25 25.1
0039E070 2019-02-16 05:53:04 21.7 25 25
0039E070 2019-02-16 05:51:46 21.5 25 24.9
0039E070 2019-02-16 05:18:23 21.5 25 24.9
0039E070 2019-02-16 04:45:00 21.4 25 24.9
0039E070 2019-02-16 04:11:36 21.4 25 24.4
0039E070 2019-02-16 03:38:14 21.4 25 24.4
0039E070 2019-02-16 03:04:52 21.4 25 24.4
0039E070 2019-02-16 02:31:29 21.4 25 24.3
0039E070 2019-02-16 01:58:07 21.5 25 24.5
0039E070 2019-02-16 01:24:45 21.5 25 24.5
0039E070 2019-02-16 00:51:23 21.5 25 24.5
0039E070 2019-02-16 00:18:00 21.5 25 24.4
0039E070 2019-02-15 23:44:40 21.6 25 24.3
0039E070 2019-02-15 23:11:15 21.6 25 24
0039E070 2019-02-15 22:37:53 21.6 25 23.8
0039E070 2019-02-15 22:04:31 21.7 25 23.7
0039E070 2019-02-15 21:31:09 21.6 25 23.5
0039E070 2019-02-15 20:57:47 21.7 25 23.4
0039E070 2019-02-15 20:24:25 21.7 25 23.5
0039E070 2019-02-15 19:51:03 21.8 25 23.5
0039E070 2019-02-15 19:17:39 21.8 25 23.5
0039E070 2019-02-15 18:44:16 21.8 25 23.5
0039E070 2019-02-15 18:10:54 21.8 25 23.5
0039E070 2019-02-15 17:37:31 21.8 25 23.3
0039E070 2019-02-15 17:04:08 21.8 25 23.3
0039E070 2019-02-15 16:30:45 21.8 24 23.4
0039E070 2019-02-15 15:57:22 21.8 24 23.5
0039E070 2019-02-15 15:23:59 21.8 24 23.4
0039E070 2019-02-15 14:50:37 21.7 24 23.4
0039E070 2019-02-15 14:17:12 21.7 24 23.3
0039E070 2019-02-15 13:43:51 21.7 24 23.3
0039E070 2019-02-15 13:10:28 21.7 24 23.4
0039E070 2019-02-15 12:37:05 21.6 24 23.5
0039E070 2019-02-15 12:03:42 21.6 25 23.5
0039E070 2019-02-15 11:30:20 21.6 25 23.5
0039E070 2019-02-15 10:56:58 21.6 25 23.5
0039E070 2019-02-15 10:23:35 21.5 25 23.7
0039E070 2019-02-15 09:50:12 21.5 25 23.7
0039E070 2019-02-15 09:16:49 21.5 25 23.9
0039E070 2019-02-15 08:43:26 21.4 25 24
0039E070 2019-02-15 08:10:02 21.5 25 24.2
0039E070 2019-02-15 07:36:38 21.5 25 24.2
0039E070 2019-02-15 07:03:16 21.5 25 24.2
0039E070 2019-02-15 06:29:51 21.5 25 24.2
0039E070 2019-02-15 05:56:28 21.5 25 24
0039E070 2019-02-15 05:23:05 21.5 25 24
0039E070 2019-02-15 04:49:41 21.5 25 24.1
0039E070 2019-02-15 04:16:19 21.5 25 24.1
0039E070 2019-02-15 03:42:55 21.5 25 24.6
0039E070 2019-02-15 03:09:31 21.5 25 25
0039E070 2019-02-15 02:36:07 21.8 25 24.8
0039E070 2019-02-15 02:34:50 21.5 25 24.8
0039E070 2019-02-15 02:01:26 21.5 25 24.7
0039E070 2019-02-15 01:28:03 21.6 25 24.7
0039E070 2019-02-15 00:54:39 21.6 25 24.8
0039E070 2019-02-15 00:21:16 21.6 25 24.7
0039E070 2019-02-14 23:47:53 21.6 25 24.6
0039E070 2019-02-14 23:14:30 21.6 25 24.4
0039E070 2019-02-14 22:41:06 21.7 25 24.3
0039E070 2019-02-14 22:07:43 21.7 24 24.3
0039E070 2019-02-14 21:34:19 21.7 24 24.3
0039E070 2019-02-14 21:00:56 21.8 24 24.1
0039E070 2019-02-14 20:27:32 21.8 24 24.1
0039E070 2019-02-14 19:54:08 21.8 24 23.9
0039E070 2019-02-14 19:20:45 21.9 24 24
0039E070 2019-02-14 18:47:23 21.9 24 24
0039E070 2019-02-14 18:13:59 21.9 24 24
0039E070 2019-02-14 17:40:36 21.9 24 24
0039E070 2019-02-14 17:07:13 21.9 24 24.1
0039E070 2019-02-14 16:33:50 21.9 24 24.2
0039E070 2019-02-14 16:00:27 21.9 24 24.2
0039E070 2019-02-14 15:27:03 21.8 24 24.3
0039E070 2019-02-14 14:53:40 21.7 24 24.3
0039E070 2019-02-14 14:20:16 21.7 24 23.8
0039E070 2019-02-14 13:46:53 21.6 23 23.2
0039E070 2019-02-14 13:13:30 21.5 23 23.4
0039E070 2019-02-14 12:40:07 21.5 23 23.5
0039E070 2019-02-14 12:06:43 21.4 23 23.6
0039E070 2019-02-14 11:33:22 21.2 23 23.5
0039E070 2019-02-14 10:59:57 21.2 24 24.1
0039E070 2019-02-14 10:26:34 21.1 24 24.5
0039E070 2019-02-14 09:53:10 21 23 24.6
0039E070 2019-02-14 09:19:47 21 24 24.5
0039E070 2019-02-14 08:46:23 21 23 24.5
0039E070 2019-02-14 08:13:02 21 24 24.6
0039E070 2019-02-14 07:39:38 21 24 24.6
0039E070 2019-02-14 07:06:15 21 25 24.6
0039E070 2019-02-14 06:32:53 21 25 24.8
0039E070 2019-02-14 05:59:29 21 25 24.9
0039E070 2019-02-14 05:26:06 21 25 24.9
0039E070 2019-02-14 04:52:42 21 25 24.8
0039E070 2019-02-14 04:19:19 21 25 24.7
0039E070 2019-02-14 03:45:55 21.1 25 24.6
0039E070 2019-02-14 03:12:32 21.1 25 24.7
0039E070 2019-02-14 02:39:09 21.1 25 24.6
0039E070 2019-02-14 02:05:46 21.1 25 24.6
0039E070 2019-02-14 01:32:22 21.1 25 24.5
0039E070 2019-02-14 00:58:59 21.1 25 24.4
0039E070 2019-02-14 00:25:34 21.1 25 24.5
0039E070 2019-02-13 23:52:11 21.2 25 24.5
0039E070 2019-02-13 23:18:50 21.4 24 24.4
0039E070 2019-02-13 23:17:30 21.2 25 24.3
0039E070 2019-02-13 22:44:07 21.2 25 24.2
0039E070 2019-02-13 22:10:43 21.3 25 24.2
0039E070 2019-02-13 21:37:20 21.4 25 23.7
0039E070 2019-02-13 21:03:55 21.4 25 23.4
0039E070 2019-02-13 20:30:32 21.5 25 23.4
0039E070 2019-02-13 19:57:08 21.6 25 23.7
0039E070 2019-02-13 19:23:45 21.6 25 23.8
0039E070 2019-02-13 18:50:23 21.7 25 23.7
0039E070 2019-02-13 18:16:59 21.7 26 23.9
0039E070 2019-02-13 17:43:37 21.6 26 24
0039E070 2019-02-13 17:10:12 21.5 26 23.7
0039E070 2019-02-13 16:36:48 21.5 27 23.8
0039E070 2019-02-13 16:03:25 21.4 26 23.8
0039E070 2019-02-13 15:30:02 21.3 26 23.7
0039E070 2019-02-13 14:56:38 21.3 26 23.9
0039E070 2019-02-13 14:23:15 21.3 25 23.9
0039E070 2019-02-13 13:49:52 21.3 24 23.9
0039E070 2019-02-13 13:16:29 21.4 24 24
0039E070 2019-02-13 12:43:06 21.3 25 24.1
0039E070 2019-02-13 12:09:43 21.2 25 24.1
0039E070 2019-02-13 11:36:20 21.2 25 24.1
0039E070 2019-02-13 11:02:56 21.1 25 24
0039E070 2019-02-13 10:29:32 21 25 24
0039E070 2019-02-13 09:56:08 21 23 24
0039E070 2019-02-13 09:22:46 21 22 24.2
0039E070 2019-02-13 08:49:20 21 22 24.3
0039E070 2019-02-13 08:15:57 21 21 24.3
0039E070 2019-02-13 07:42:33 21 20 24.3
0039E070 2019-02-13 07:09:09 21 19 24.3
0039E070 2019-02-13 06:35:47 21 19 24.4
0039E070 2019-02-13 06:02:23 21 19 24.3
0039E070 2019-02-13 05:28:59 21 19 24.2
0039E070 2019-02-13 04:55:35 21 19 24.3
0039E070 2019-02-13 04:22:12 21 19 24.1
0039E070 2019-02-13 03:48:49 21.1 19 24.1
0039E070 2019-02-13 03:15:26 21.1 19 24.1
0039E070 2019-02-13 02:42:02 21.1 19 24
0039E070 2019-02-13 02:08:38 21.1 19 23.8
0039E070 2019-02-13 01:35:15 21.1 18 23.7
0039E070 2019-02-13 01:01:53 21.1 17 23.6
0039E070 2019-02-13 00:28:30 21.1 18 24.1
0039E070 2019-02-12 23:55:07 21.2 20 24.2
0039E070 2019-02-12 23:21:44 21.2 19 23.9
0039E070 2019-02-12 22:48:21 21.3 19 23.9
0039E070 2019-02-12 22:14:58 21.3 19 23.8
0039E070 2019-02-12 21:41:35 21.3 19 23.7
0039E070 2019-02-12 21:08:11 21.4 21 23.7
0039E070 2019-02-12 20:34:49 21.5 21 23.8
0039E070 2019-02-12 20:01:25 21.6 20 23.7
0039E070 2019-02-12 20:00:08 21.4 21 23.6
0039E070 2019-02-12 19:26:46 21.4 20 23.7
0039E070 2019-02-12 18:53:21 21.4 20 23.8
0039E070 2019-02-12 18:19:58 21.4 18 23.9
0039E070 2019-02-12 17:46:36 21.5 18 23.9
0039E070 2019-02-12 17:13:12 21.6 18 23.9
0039E070 2019-02-12 16:39:49 21.6 18 23.8
0039E070 2019-02-12 16:06:25 21.6 18 23.8
0039E070 2019-02-12 15:33:02 21.5 18 23.6
0039E070 2019-02-12 14:59:38 21.5 19 23.6
0039E070 2019-02-12 14:26:15 21.4 19 23.6
0039E070 2019-02-12 13:52:53 21.4 18 23.6
0039E070 2019-02-12 13:19:31 21.5 18 23.7
0039E070 2019-02-12 12:46:09 21.5 19 23.8
0039E070 2019-02-12 12:12:46 21.4 19 24
0039E070 2019-02-12 11:39:23 21.4 18 24.2
0039E070 2019-02-12 11:06:00 21.3 19 23.6
0039E070 2019-02-12 10:32:37 21.3 20 23.4
0039E070 2019-02-12 09:59:14 21.2 20 23.6
0039E070 2019-02-12 09:25:51 21.1 22 23.6
0039E070 2019-02-12 08:52:28 21 23 23.7
0039E070 2019-02-12 08:19:04 21 23 23.7
0039E070 2019-02-12 07:45:40 21 23 23.7
0039E070 2019-02-12 07:12:18 21 26 23.6
0039E070 2019-02-12 06:38:54 21 26 23.6
0039E070 2019-02-12 06:05:33 21 26 23.5
0039E070 2019-02-12 05:32:10 21 27 23.4
0039E070 2019-02-12 04:58:49 21.1 27 23.3
0039E070 2019-02-12 04:25:27 21.1 27 23
0039E070 2019-02-12 03:52:04 21.1 27 23.1
0039E070 2019-02-12 03:18:42 21.1 27 22.9
0039E070 2019-02-12 02:45:19 21.1 27 22.9
0039E070 2019-02-12 02:11:56 21.1 27 22.9
0039E070 2019-02-12 01:38:34 21.1 27 23.1
0039E070 2019-02-12 01:05:11 21.2 27 23.1
0039E070 2019-02-12 00:31:48 21.2 27 23.2
0039E070 2019-02-11 23:58:25 21.3 27 23.4
0039E070 2019-02-11 23:25:02 21.3 27 23.1
0039E070 2019-02-11 22:51:38 21.4 27 23.3
0039E070 2019-02-11 22:18:15 21.4 27 23.2
0039E070 2019-02-11 21:44:51 21.5 27 22.7
0039E070 2019-02-11 21:11:27 21.6 27 22.6
0039E070 2019-02-11 20:38:03 21.7 27 22.9
0039E070 2019-02-11 20:04:39 21.8 27 22.7
0039E070 2019-02-11 19:31:16 22 27 22.2
0039E070 2019-02-11 18:57:51 22.1 27 20.8
0039E070 2019-02-11 18:24:28 22.2 26 20
0039E070 2019-02-11 17:51:04 22.4 27 19.9
0039E070 2019-02-11 17:17:39 22.4 27 15.7
0039E070 2019-02-11 16:44:15 22.2 31 0